				
				
					
						 
					 | 
				
				
				
					
						
					 | 
				
				
				
					
					
					Asteroid 2011 LJ1
					
					
					
					
						
					
					
						
							(Preview)
						
						
						
						
							
						
							
								Orbital elements:
2011 LJ1                                                 Earth MOID = 0.0717 AU
Epoch 2011 Aug. 27.0 TT = JDT 2455800.5                 MPC
M 356.68826              (2000.0)            P               Q
n   0.28742547     Peri.  216.02822     +0.99537539     +0.05227711
a   2.2739760      Node   140.73607     -0.02539473     +0.95230645
e   0.6734277      Incl.    7.31577     -0.09264414     +0.30063187
P   3.43           H   19.3           G... 
							 
							
						 
						
					
				 | 
				
					
						Blobrana
					 | 
				
				
					
						0
					 | 
				
				
				
					
						
					 | 
				
				
					
						
					 | 
				
			
		
			
			
				
				
					
						 
					 | 
				
				
				
					
						
					 | 
				
				
				
					
					
					Asteroid (267494) 2002 JB9
					
					
					
					
						
					
					
						
							(Preview)
						
						
						
						
							
						
							
								The 2000 - 4400 metre wide asteroid 2002 JB9 will make a close pass (71.5 lunar distances, 0.1837 AU), travelling at 29.25 km/second, to the Earth-Moon system on the 11th June, 2011 @ 14:02 UT ±00:01.   See more  The Lunar Distance...               
							 
							
						 
						
					
				 | 
				
					
						Blobrana
					 | 
				
				
					
						1
					 | 
				
				
				
					
						
					 | 
				
				
					
						
					 | 
				
			
		
			
			
				
				
					
						 
					 | 
				
				
				
					
						
					 | 
				
				
				
					
					
					Asteroid 2008 VH
					
					
					
					
						
					
					
						
							(Preview)
						
						
						
						
							
						
							
								Orbital elements:
2008 VH                                                  Earth MOID = 0.1560 AU
Epoch 2011 Aug. 27.0 TT = JDT 2455800.5                 MPC
M  14.11643              (2000.0)            P               Q
n   0.31451782     Peri.   91.73032     +0.39396842     +0.91854534
a   2.1414398      Node   201.56169     -0.87462380     +0.36375243
e   0.4677139      Incl.    5.09063     -0.28252805     +0.15478575
P   3.13           H   20.3           G   0.1... 
							 
							
						 
						
					
				 | 
				
					
						Blobrana
					 | 
				
				
					
						0
					 | 
				
				
				
					
						
					 | 
				
				
					
						
					 | 
				
			
		
			
			
				
				
					
						 
					 | 
				
				
				
					
						
					 | 
				
				
				
					
					
					Asteroid 2011 LD1
					
					
					
					
						
					
					
						
							(Preview)
						
						
						
						
							
						
							
								Orbital elements:
2011 LD1                                                 Earth MOID = 0.3291 AU
Epoch 2011 Aug. 27.0 TT = JDT 2455800.5                 MPC
M  77.36733              (2000.0)            P               Q
n   0.45506280     Peri.   31.42407     -0.30196645     -0.71819530
a   1.6739989      Node    83.29447     +0.68997346     -0.61842980
e   0.7748803      Incl.   39.14052     +0.65783956     +0.31896723
P   2.17           H   18.7           G   0....                   
							 
							
						 
						
					
				 | 
				
					
						Blobrana
					 | 
				
				
					
						0
					 | 
				
				
				
					
						
					 | 
				
				
					
						
					 |